Delaware, OH

12:33 AM EDT on October 20, 2017 (GMT -0400)
Delaware Municipal

Weather History for KDLZ - August, 2013

Change the Weather History Date:

Monday, August 19, 2013

  Actual Average Record
Temperature  
Mean Temperature 68 °F -  
Max Temperature 80 °F 83 °F 101 °F (1936)
Min Temperature 57 °F 58 °F 45 °F (1943)
Cooling Degree Days 4    
Growing Degree Days 18 (Base 50)    
Moisture  
Dew Point 59 °F    
Average Humidity 76    
Maximum Humidity 100    
Minimum Humidity 42    
Precipitation  
Precipitation 0.00 in - - ()
Sea Level Pressure  
Sea Level Pressure 30.14 in    
Wind  
Wind Speed 1 mph (West)    
Max Wind Speed 5 mph    
Max Gust Speed -    
Visibility 7 miles    
Events Fog    
Averages and records for this station are not official NWS values.
T = Trace of Precipitation, MM = Missing Value Source: NWS Daily Summary

Daily Weather History Graph

Daily Weather History Graph

Search for Another Location

Airport or City:

Trip Planner

Search our weather history database for the weather conditions in past years. The results will help you decide how hot, cold, wet, or windy it might be!

Date:

Astronomy

Aug. 19, 2013 Rise Set
Actual Time 6:47 AM EDT 8:23 PM EDT
Civil Twilight 6:18 AM EDT 8:52 PM EDT
Nautical Twilight 5:44 AM EDT 9:26 PM EDT
Astronomical Twilight 5:06 AM EDT 10:03 PM EDT
Moon 7:13 PM EDT (8/19) 5:05 AM EDT (8/19)
Length of Visible Light 14h 33m
Length of Day
13h 35m
Waxing Gibbous, 97% of the Moon is Illuminated
Aug 19
Waxing Gibbous
Aug 20
Full
Aug 28
Last Quarter
Sep 5
New
Sep 12
First Quarter

Hourly Weather History & Observations

Time (EDT) Temp. Heat Index Dew Point Humidity Pressure Visibility Wind Dir Wind Speed Gust Speed Precip Events Conditions
12:17 AM 59.0 °F - 57.2 °F 94% 30.16 in 7.0 mi Calm Calm - N/A   Clear
12:37 AM 59.0 °F - 57.2 °F 94% 30.16 in 5.0 mi Calm Calm - N/A   Clear
12:56 AM 59.0 °F - 55.4 °F 88% 30.16 in 5.0 mi Calm Calm - N/A   Scattered Clouds
1:17 AM 60.8 °F - 59.0 °F 94% 30.16 in 7.0 mi Calm Calm - N/A   Mostly Cloudy
1:37 AM 60.8 °F - 59.0 °F 94% 30.15 in 5.0 mi Calm Calm - N/A   Overcast
1:56 AM 59.0 °F - 57.2 °F 94% 30.15 in 5.0 mi Calm Calm - N/A   Mostly Cloudy
2:17 AM 59.0 °F - 55.4 °F 88% 30.15 in 7.0 mi Calm Calm - N/A   Scattered Clouds
2:37 AM 59.0 °F - 55.4 °F 88% 30.14 in 0.8 mi Calm Calm - N/A   Mist
2:56 AM 59.0 °F - 55.4 °F 88% 30.14 in 0.2 mi Calm Calm - N/A Fog Fog
3:17 AM 57.2 °F - 55.4 °F 94% 30.14 in 2.0 mi Calm Calm - N/A   Scattered Clouds
3:36 AM 57.2 °F - 55.4 °F 94% 30.14 in 0.2 mi South 3.5 mph - N/A Fog Fog
3:56 AM 59.0 °F - 57.2 °F 94% 30.14 in 0.2 mi South 3.5 mph - N/A Fog Fog
4:17 AM 60.8 °F - 59.0 °F 94% 30.14 in 0.2 mi Calm Calm - N/A Fog Fog
4:36 AM 60.8 °F - 60.8 °F 100% 30.15 in 0.2 mi Calm Calm - N/A Fog Fog
4:56 AM 62.6 °F - 60.8 °F 94% 30.15 in 0.2 mi SW 3.5 mph - N/A Fog Fog
5:17 AM 62.6 °F - 60.8 °F 94% 30.15 in 0.2 mi SW 3.5 mph - N/A Fog Fog
5:36 AM 62.6 °F - 60.8 °F 94% 30.15 in 0.2 mi Calm Calm - N/A Fog Fog
5:56 AM 62.6 °F - 60.8 °F 94% 30.15 in 0.2 mi Calm Calm - N/A Fog Fog
6:17 AM 62.6 °F - 60.8 °F 94% 30.15 in 0.2 mi Calm Calm - N/A Fog Fog
6:36 AM 62.6 °F - 60.8 °F 94% 30.16 in 0.2 mi Calm Calm - N/A Fog Fog
6:56 AM 62.6 °F - 60.8 °F 94% 30.16 in 0.5 mi Calm Calm - N/A Fog Fog
7:17 AM 62.6 °F - 60.8 °F 94% 30.16 in 0.2 mi Calm Calm - N/A Fog Fog
7:36 AM 62.6 °F - 60.8 °F 94% 30.16 in 0.2 mi Calm Calm - N/A Fog Fog
7:57 AM 62.6 °F - 60.8 °F 94% 30.17 in 0.5 mi Calm Calm - N/A Fog Fog
8:17 AM 62.6 °F - 60.8 °F 94% 30.17 in 0.8 mi Calm Calm - N/A   Overcast
8:36 AM 62.6 °F - 60.8 °F 94% 30.17 in 0.8 mi Calm Calm - N/A   Overcast
8:57 AM 62.6 °F - 60.8 °F 94% 30.17 in 2.0 mi Calm Calm - N/A   Overcast
9:17 AM 64.4 °F - 62.6 °F 94% 30.17 in 2.0 mi Calm Calm - N/A   Overcast
9:36 AM 64.4 °F - 62.6 °F 94% 30.17 in 3.0 mi Calm Calm - N/A   Overcast
9:57 AM 64.4 °F - 62.6 °F 94% 30.17 in 5.0 mi Calm Calm - N/A   Overcast
10:17 AM 68.0 °F - 62.6 °F 83% 30.16 in 5.0 mi Calm Calm - N/A   Mostly Cloudy
10:36 AM 69.8 °F - 62.6 °F 78% 30.16 in 7.0 mi Calm Calm - N/A   Scattered Clouds
10:57 AM 71.6 °F - 62.6 °F 73% 30.16 in 10.0 mi Calm Calm - N/A   Clear
11:17 AM 71.6 °F - 62.6 °F 73% 30.16 in 10.0 mi Calm Calm - N/A   Clear
11:36 AM 73.4 °F - 60.8 °F 65% 30.16 in 10.0 mi Calm Calm - N/A   Clear
11:57 AM 75.2 °F - 57.2 °F 53% 30.16 in 10.0 mi Calm Calm - N/A   Clear
12:17 PM 77.0 °F - 59.0 °F 54% 30.16 in 10.0 mi Calm Calm - N/A   Clear
12:36 PM 77.0 °F - 55.4 °F 47% 30.15 in 10.0 mi Calm Calm - N/A   Clear
12:57 PM 77.0 °F - 59.0 °F 54% 30.15 in 10.0 mi NW 3.5 mph - N/A   Clear
1:17 PM 78.8 °F - 59.0 °F 51% 30.14 in 10.0 mi NW 4.6 mph - N/A   Clear
1:36 PM 78.8 °F - 55.4 °F 44% 30.14 in 10.0 mi Calm Calm - N/A   Clear
1:57 PM 78.8 °F - 55.4 °F 44% 30.14 in 10.0 mi Calm Calm - N/A   Clear
2:17 PM 77.0 °F - 55.4 °F 47% 30.14 in 10.0 mi NNE 4.6 mph - N/A   Clear
2:36 PM 78.8 °F - 55.4 °F 44% 30.14 in 10.0 mi NE 3.5 mph - N/A   Clear
2:57 PM 78.8 °F - 55.4 °F 44% 30.14 in 10.0 mi Calm Calm - N/A   Scattered Clouds
3:17 PM 80.6 °F 80.5 °F 55.4 °F 42% 30.13 in 10.0 mi West 4.6 mph - N/A   Scattered Clouds
3:36 PM 78.8 °F - 55.4 °F 44% 30.13 in 10.0 mi WNW 3.5 mph - N/A   Scattered Clouds
3:57 PM 78.8 °F - 55.4 °F 44% 30.12 in 10.0 mi Calm Calm - N/A   Clear
4:17 PM 80.6 °F 80.5 °F 55.4 °F 42% 30.12 in 10.0 mi Calm Calm - N/A   Clear
4:36 PM 80.6 °F 80.8 °F 57.2 °F 45% 30.12 in 10.0 mi West 3.5 mph - N/A   Clear
4:57 PM 78.8 °F - 55.4 °F 44% 30.12 in 10.0 mi Calm Calm - N/A   Clear
5:16 PM 78.8 °F - 55.4 °F 44% 30.11 in 10.0 mi WNW 3.5 mph - N/A   Clear
5:36 PM 78.8 °F - 57.2 °F 47% 30.11 in 10.0 mi West 3.5 mph - N/A   Clear
5:57 PM 78.8 °F - 57.2 °F 47% 30.11 in 10.0 mi Calm Calm - N/A   Clear
6:16 PM 77.0 °F - 55.4 °F 47% 30.11 in 10.0 mi Calm Calm - N/A   Clear
6:37 PM 77.0 °F - 59.0 °F 54% 30.10 in 10.0 mi Calm Calm - N/A   Clear
6:57 PM 77.0 °F - 59.0 °F 54% 30.10 in 10.0 mi Calm Calm - N/A   Clear
7:16 PM 77.0 °F - 59.0 °F 54% 30.10 in 10.0 mi Calm Calm - N/A   Clear
7:37 PM 73.4 °F - 62.6 °F 69% 30.10 in 10.0 mi Calm Calm - N/A   Clear
7:56 PM 71.6 °F - 62.6 °F 73% 30.10 in 10.0 mi Calm Calm - N/A   Clear
8:16 PM 68.0 °F - 62.6 °F 83% 30.10 in 10.0 mi Calm Calm - N/A   Clear
8:37 PM 66.2 °F - 62.6 °F 88% 30.10 in 10.0 mi Calm Calm - N/A   Clear
8:56 PM 64.4 °F - 60.8 °F 88% 30.10 in 10.0 mi Calm Calm - N/A   Clear
9:16 PM 62.6 °F - 60.8 °F 94% 30.10 in 10.0 mi Calm Calm - N/A   Clear
9:37 PM 62.6 °F - 60.8 °F 94% 30.11 in 10.0 mi Calm Calm - N/A   Clear
9:56 PM 62.6 °F - 59.0 °F 88% 30.12 in 10.0 mi Calm Calm - N/A   Clear
10:17 PM 60.8 °F - 59.0 °F 94% 30.12 in 10.0 mi Calm Calm - N/A   Clear
10:37 PM 60.8 °F - 59.0 °F 94% 30.12 in 10.0 mi Calm Calm - N/A   Clear
10:56 PM 60.8 °F - 59.0 °F 94% 30.12 in 10.0 mi Calm Calm - N/A   Clear
11:16 PM 60.8 °F - 57.2 °F 88% 30.12 in 10.0 mi Calm Calm - N/A   Clear
11:37 PM 59.0 °F - 57.2 °F 94% 30.13 in 10.0 mi Calm Calm - N/A   Clear
11:56 PM 59.0 °F - 55.4 °F 88% 30.13 in 10.0 mi Calm Calm - N/A   Clear